1534989600.44,36484,21.19,74546.5,4.65,-6.47,-10.89,0,*42
1534989601.63,36485,21.19,74546.5,4.65,-6.47,-10.97,0,*4C
1534989602.82,36486,21.19,74544.3,4.65,-6.39,-10.89,0,*49
1534989604.01,36487,21.19,74546.3,4.65,-6.47,-11.01,0,*40
1534989605.24,36488,21.19,74546.8,4.63,-6.55,-11.23,0,*4A
1534989606.43,36489,21.19,74544.8,4.65,-6.55,-11.15,0,*48
1534989607.65,36490,21.19,74544.5,4.63,-6.39,-10.89,0,*48
1534989608.89,36491,21.19,74542.3,4.65,-6.23,-10.67,0,*44
1534989610.17,36492,21.19,74544.3,4.63,-6.23,-10.67,0,*41
1534989611.41,36493,21.19,74544.0,4.65,-6.23,-10.71,0,*41
1534989612.69,36494,21.19,74540.0,4.63,-6.23,-10.67,0,*47
1534989613.89,36495,21.19,74542.3,4.65,-6.35,-10.57,0,*44
1534989615.11,36496,21.19,74546.3,4.65,-6.35,-10.71,0,*43
1534989616.35,36497,21.19,74540.3,4.67,-6.63,-10.93,0,*4F
1534989617.57,36498,21.19,74542.0,4.67,-6.77,-11.11,0,*4E
1534989618.79,36499,21.19,74542.3,4.65,-6.93,-11.15,0,*43
1534989619.98,36500,21.19,74542.3,4.65,-6.81,-10.89,0,*45
1534989621.17,36501,21.19,74540.5,4.65,-6.89,-11.15,0,*48
1534989622.39,36502,21.19,74542.8,4.65,-7.05,-11.23,0,*4B
1534989623.63,36503,21.19,74540.5,4.67,-7.01,-11.19,0,*45
1534989624.86,36504,21.19,74540.8,4.67,-7.11,-11.23,0,*4A
1534989626.05,36505,21.19,74540.0,4.65,-7.15,-11.11,0,*4C
1534989627.26,36506,21.19,74538.8,4.65,-7.01,-10.85,0,*46
1534989628.47,36507,21.19,74542.0,4.65,-6.93,-10.85,0,*4D
1534989629.7,36508,21.19,74542.0,4.65,-6.81,-10.67,0,*4D
1534989630.9,36509,21.19,74540.3,4.65,-6.81,-10.57,0,*4F
1534989632.14,36510,21.19,74540.8,4.65,-7.05,-10.79,0,*46
1534989633.34,36511,21.19,74538.5,4.65,-7.19,-10.89,0,*45
1534989634.55,36512,21.19,74540.5,4.65,-7.27,-10.97,0,*44
1534989635.77,36513,21.19,74538.5,4.63,-7.49,-11.23,0,*45
1534989636.96,36514,21.19,74536.5,4.65,-7.49,-11.11,0,*45
1534989638.23,36515,21.19,74538.5,4.67,-7.39,-11.07,0,*46
1534989639.41,36516,21.19,74538.5,4.65,-7.49,-11.01,0,*46
1534989640.64,36517,21.19,74538.3,4.65,-7.57,-11.01,0,*48
1534989641.83,36518,21.19,74542.3,4.65,-7.49,-11.01,0,*48
1534989643.07,36519,21.19,74536.5,4.67,-7.69,-11.11,0,*48
1534989644.31,36520,21.19,74540.5,4.67,-7.69,-11.19,0,*4A
1534989645.53,36521,21.19,74538.8,4.65,-7.73,-11.11,0,*4A
1534989646.75,36522,21.19,74542.0,4.65,-7.69,-11.01,0,*43
1534989647.96,36523,21.19,74540.0,4.65,-7.61,-11.01,0,*4A
1534989649.21,36524,21.19,74542.8,4.63,-7.61,-10.89,0,*4A
1534989650.41,36525,21.19,74540.3,4.65,-7.83,-11.01,0,*40
1534989651.6,36526,21.19,74536.8,4.65,-7.87,-11.23,0,*47
1534989652.79,36527,21.19,74536.3,4.65,-7.87,-11.23,0,*46
1534989654.0,36528,21.19,74540.3,4.65,-7.95,-11.23,0,*4A
1534989655.19,36529,21.19,74542.0,4.65,-7.87,-11.11,0,*49
1534989656.38,36530,21.19,74540.8,4.65,-7.83,-11.11,0,*45
1534989657.57,36531,21.19,74542.8,4.65,-7.87,-11.11,0,*40
1534989658.76,36532,21.19,74542.3,4.65,-7.83,-10.85,0,*4B
1534989659.98,36533,21.19,74540.8,4.65,-7.73,-10.97,0,*46
1534989661.23,36534,21.19,74540.8,4.65,-7.57,-10.67,0,*48
1534989662.48,36535,21.19,74538.8,4.67,-7.53,-10.63,0,*4B
1534989663.76,36536,21.19,74542.0,4.67,-7.65,-10.67,0,*49
1534989665.03,36537,21.19,74540.3,4.67,-7.77,-10.79,0,*44
1534989666.31,36538,21.19,74540.8,4.67,-7.77,-10.75,0,*47
1534989667.55,36539,21.19,74536.0,4.67,-7.69,-10.85,0,*46
1534989668.77,36540,21.19,74540.3,4.67,-7.83,-10.97,0,*4F
1534989670.02,36541,21.19,74542.8,4.67,-7.91,-10.97,0,*4D
1534989671.26,36542,21.19,74542.3,4.69,-7.77,-10.79,0,*48
1534989672.51,36543,21.19,74538.8,4.69,-7.65,-10.71,0,*42
1534989673.78,36544,21.19,74544.8,4.67,-7.77,-10.79,0,*40
1534989675.01,36545,21.19,74542.5,4.69,-7.73,-10.89,0,*44
1534989676.24,36546,21.19,74540.5,4.67,-7.69,-10.85,0,*4E
1534989677.52,36547,21.19,74540.3,4.67,-7.77,-10.75,0,*4F
1534989678.77,36548,21.19,74542.3,4.69,-7.65,-10.75,0,*4D
1534989679.99,36549,21.19,74544.8,4.69,-7.91,-10.97,0,*4B
1534989681.23,36550,21.19,74542.8,4.67,-7.77,-10.85,0,*46
1534989682.48,36551,21.19,74540.0,4.69,-7.65,-10.79,0,*49
1534989683.72,36552,21.19,74542.0,4.67,-7.77,-10.97,0,*47
1534989684.97,36553,21.19,74540.0,4.69,-7.65,-10.75,0,*47
1534989686.2,36554,21.19,74542.0,4.69,-7.73,-10.89,0,*44
1534989687.44,36555,21.19,74538.8,4.69,-7.77,-10.79,0,*4E
1534989688.69,36556,21.19,74542.3,4.69,-7.61,-10.71,0,*42
1534989689.94,36557,21.19,74540.8,4.69,-7.61,-10.75,0,*47
1534989691.16,36558,21.19,74540.8,4.69,-7.73,-10.89,0,*48
1534989692.39,36559,21.19,74540.8,4.69,-7.73,-10.89,0,*49
1534989693.58,36560,21.19,74540.3,4.69,-7.87,-10.93,0,*43
1534989694.8,36561,21.19,74542.0,4.69,-7.91,-10.97,0,*41
1534989696.0,36562,21.19,74542.8,4.69,-7.87,-10.93,0,*41
1534989697.22,36563,21.19,74544.8,4.69,-7.99,-11.15,0,*40
1534989698.43,36564,21.19,74540.8,4.69,-7.99,-11.15,0,*47
1534989699.68,36565,21.19,74546.0,4.67,-8.07,-11.23,0,*45
1534989700.9,36566,21.19,74540.3,4.69,-7.99,-11.01,0,*40
1534989702.12,36567,21.19,74542.0,4.69,-7.91,-11.01,0,*49
1534989703.33,36568,21.19,74540.3,4.69,-7.91,-10.93,0,*4C
1534989704.58,36569,21.19,74538.8,4.69,-7.77,-10.75,0,*4D
1534989705.82,36570,21.19,74540.0,4.67,-7.91,-10.93,0,*4B
1534989707.07,36571,21.19,74540.5,4.67,-7.83,-10.79,0,*4D
1534989708.32,36572,21.19,74538.8,4.69,-7.77,-10.71,0,*43
1534989709.57,36573,21.19,74542.5,4.69,-7.73,-10.63,0,*45
1534989710.79,36574,21.19,74540.0,4.69,-7.87,-10.75,0,*4E
1534989712.01,36575,21.19,74542.8,4.69,-7.87,-10.75,0,*4F
1534989713.26,36576,21.19,74542.8,4.69,-7.99,-10.79,0,*4F
1534989714.47,36577,21.19,74542.8,4.69,-8.03,-10.93,0,*46
1534989715.69,36578,21.19,74542.0,4.69,-7.99,-10.89,0,*4E
1534989716.91,36579,21.19,74536.5,4.73,-8.03,-10.97,0,*47
1534989718.11,36580,21.19,74542.5,4.73,-8.17,-10.97,0,*44
1534989719.34,36581,21.19,74542.0,4.69,-8.17,-11.07,0,*46
1534989720.53,36582,21.19,74540.8,4.69,-8.17,-11.01,0,*43
1534989721.75,36583,21.19,74542.3,4.67,-8.33,-11.19,0,*43
1534989722.94,36584,21.19,74540.5,4.69,-8.17,-11.15,0,*40
1534989724.13,36585,21.19,74540.8,4.69,-8.17,-11.15,0,*41
1534989725.32,36586,21.19,74540.5,4.69,-8.33,-11.15,0,*44
1534989726.51,36587,21.19,74540.5,4.69,-8.33,-11.19,0,*49
1534989727.7,36588,21.19,74540.5,4.69,-8.29,-11.19,0,*4D
1534989728.91,36589,21.19,74536.8,4.67,-8.33,-11.19,0,*49
1534989730.1,36590,21.19,74536.0,4.69,-8.33,-11.15,0,*43
1534989731.29,36591,21.19,74532.5,4.69,-8.33,-11.15,0,*42
1534989732.51,36592,21.19,74536.5,4.67,-8.37,-11.11,0,*4F
1534989733.73,36593,21.19,74538.8,4.67,-8.33,-11.11,0,*4A
1534989734.98,36594,21.19,74536.8,4.67,-8.25,-11.07,0,*4D
1534989736.2,36595,21.19,74538.3,4.69,-8.41,-11.29,0,*4C
1534989737.39,36596,21.19,74538.0,4.69,-8.29,-11.01,0,*4B
1534989738.64,36597,21.19,74538.0,4.67,-8.21,-11.07,0,*4A
1534989739.85,36598,21.19,74538.8,4.67,-8.33,-11.11,0,*41
1534989741.13,36599,21.19,74540.3,4.67,-8.07,-10.75,0,*44
1534989742.38,36600,21.19,74538.3,4.67,-8.07,-10.93,0,*4F
1534989743.57,36601,21.19,74536.3,4.69,-8.33,-11.15,0,*48
1534989744.78,36602,21.19,74538.8,4.67,-8.33,-11.19,0,*49
1534989746.0,36603,21.19,74538.0,4.69,-8.29,-11.07,0,*42
1534989747.2,36604,21.19,74538.0,4.69,-8.29,-11.01,0,*43
1534989748.45,36605,21.19,74538.0,4.67,-8.25,-11.07,0,*46
1534989749.7,36606,21.19,74536.8,4.67,-8.21,-11.07,0,*41
1534989750.89,36607,21.19,74538.0,4.69,-8.21,-11.01,0,*48
1534989752.14,36608,21.19,74536.3,4.67,-8.21,-11.07,0,*4F
1534989753.36,36609,21.19,74536.5,4.69,-8.21,-11.07,0,*40
1534989754.57,36610,21.19,74538.3,4.67,-8.33,-11.11,0,*42
1534989755.76,36611,21.19,74538.3,4.69,-8.33,-11.15,0,*49
1534989756.95,36612,21.19,74540.0,4.69,-8.41,-11.19,0,*43
1534989758.22,36613,21.19,74536.5,4.67,-8.51,-11.33,0,*45
1534989759.42,36614,21.19,74538.8,4.69,-8.41,-11.19,0,*45
1534989760.61,36615,21.19,74538.8,4.69,-8.21,-11.01,0,*4B
1534989761.8,36616,21.19,74536.8,4.69,-8.21,-11.15,0,*4D
1534989763.06,36617,21.19,74538.3,4.67,-8.11,-10.97,0,*4A
1534989764.25,36618,21.19,74538.8,4.69,-8.17,-10.93,0,*49
1534989765.5,36619,21.19,74538.0,4.67,-8.11,-10.93,0,*40
1534989766.75,36620,21.19,74542.8,4.67,-8.21,-11.07,0,*45
1534989767.97,36621,21.19,74536.3,4.69,-8.29,-11.07,0,*42
1534989769.22,36622,21.19,74538.3,4.69,-8.07,-10.79,0,*45
1534989770.47,36623,21.19,74538.3,4.67,-8.11,-10.93,0,*49
1534989771.66,36624,21.19,74536.5,4.69,-8.29,-11.15,0,*44
1534989772.88,36625,21.19,74540.8,4.67,-8.21,-11.01,0,*46
1534989774.15,36626,21.19,74542.3,4.67,-7.91,-10.79,0,*4F
1534989775.4,36627,21.19,74536.8,4.67,-8.07,-10.93,0,*4A
1534989776.63,36628,21.19,74538.0,4.69,-8.17,-11.07,0,*46
1534989777.84,36629,21.19,74540.3,4.69,-8.03,-10.93,0,*4E
1534989779.09,36630,21.19,74536.8,4.67,-8.07,-10.93,0,*4C
1534989780.31,36631,21.19,74540.0,4.69,-8.03,-11.01,0,*4D
1534989781.53,36632,21.19,74540.0,4.69,-7.99,-10.93,0,*48
1534989782.77,36633,21.19,74544.0,4.69,-7.77,-10.75,0,*41
1534989783.98,36634,21.19,74540.8,4.69,-7.91,-10.85,0,*41
1534989785.2,36635,21.19,74542.3,4.69,-7.77,-10.89,0,*44
1534989786.42,36636,21.19,74542.3,4.69,-7.91,-11.01,0,*4E
1534989787.67,36637,21.19,74544.3,4.69,-7.77,-10.75,0,*45
1534989788.91,36638,21.19,74540.3,4.69,-7.65,-10.79,0,*45
1534989790.14,36639,21.19,74536.8,4.69,-7.73,-10.89,0,*4C
1534989791.36,36640,21.19,74542.8,4.69,-7.77,-11.01,0,*47
1534989792.55,36641,21.19,74540.3,4.69,-7.87,-11.01,0,*49
1534989793.79,36642,21.19,74542.3,4.69,-8.03,-11.29,0,*43
1534989795.04,36643,21.19,74542.8,4.69,-7.99,-11.29,0,*4E
1534989796.23,36644,21.19,74540.0,4.69,-7.87,-11.19,0,*45
1534989797.45,36645,21.19,74542.5,4.69,-7.77,-10.93,0,*48
1534989798.64,36646,21.19,74542.8,4.69,-7.87,-11.15,0,*4B
1534989799.83,36647,21.19,74540.3,4.69,-7.87,-11.15,0,*4A
1534989801.08,36648,21.19,74542.5,4.67,-8.03,-11.23,0,*4D
1534989802.34,36649,21.19,74540.0,4.67,-8.07,-11.33,0,*49
1534989803.56,36650,21.19,74540.5,4.69,-8.03,-11.19,0,*43
1534989804.81,36651,21.19,74540.8,4.67,-8.07,-11.23,0,*41
1534989806.07,36652,21.19,74538.3,4.67,-8.11,-11.33,0,*44
1534989807.32,36653,21.19,74540.0,4.69,-8.07,-11.29,0,*47
1534989808.57,36654,21.19,74538.8,4.67,-8.07,-11.19,0,*4D
1534989809.81,36655,21.19,74536.5,4.67,-8.03,-11.11,0,*40
1534989811.06,36656,21.19,74536.0,4.67,-8.07,-11.23,0,*46
1534989812.27,36657,21.19,74538.8,4.69,-8.03,-11.19,0,*44
1534989813.52,36658,21.19,74538.0,4.67,-8.11,-11.23,0,*4F
1534989814.76,36659,21.19,74534.5,4.67,-8.21,-11.37,0,*48
1534989816.0,36660,21.19,74540.0,4.67,-8.21,-11.37,0,*42
1534989817.27,36661,21.19,74536.3,4.67,-8.11,-11.33,0,*44
1534989818.51,36662,21.19,74536.5,4.67,-8.21,-11.33,0,*44
1534989819.75,36663,21.19,74536.0,4.67,-8.03,-11.19,0,*4D
1534989820.97,36664,21.19,74536.8,4.67,-7.83,-10.97,0,*4A
1534989822.22,36665,21.19,74538.3,4.67,-7.83,-11.07,0,*43
1534989823.44,36666,21.19,74534.8,4.65,-7.95,-11.15,0,*46
1534989824.63,36667,21.19,74532.3,4.65,-7.83,-10.97,0,*4B
1534989825.91,36668,21.19,74538.0,4.67,-7.77,-11.07,0,*45
1534989827.15,36669,21.19,74538.3,4.67,-7.95,-11.19,0,*47
1534989828.37,36670,21.19,74538.5,4.69,-7.87,-11.07,0,*4D
1534989829.61,36671,21.19,74538.0,4.67,-7.95,-11.19,0,*4E
1534989830.83,36672,21.19,74538.5,4.67,-7.83,-11.19,0,*4A
1534989832.07,36673,21.19,74536.0,4.67,-7.91,-11.19,0,*48
1534989833.32,36674,21.19,74532.5,4.69,-7.77,-11.07,0,*46
1534989834.54,36675,21.19,74536.5,4.65,-7.69,-11.01,0,*42
1534989835.81,36676,21.19,74536.3,4.67,-7.77,-11.07,0,*4A
1534989837.0,36677,21.19,74536.3,4.69,-7.83,-11.11,0,*49
1534989838.22,36678,21.19,74538.5,4.67,-7.83,-11.19,0,*40
1534989839.43,36679,21.19,74534.8,4.65,-7.87,-11.37,0,*4B
1534989840.68,36680,21.19,74536.5,4.65,-8.07,-11.37,0,*4A
1534989841.92,36681,21.19,74532.5,4.65,-8.07,-11.37,0,*4B
1534989843.11,36682,21.19,74538.8,4.65,-7.87,-11.41,0,*4E
1534989844.33,36683,21.19,74538.0,4.65,-7.99,-11.41,0,*40
1534989845.58,36684,21.19,74536.5,4.63,-7.99,-11.41,0,*41
1534989846.82,36685,21.19,74540.5,4.65,-7.95,-11.29,0,*44
1534989848.06,36686,21.19,74538.5,4.65,-7.95,-11.37,0,*48
1534989849.31,36687,21.19,74538.3,4.63,-8.07,-11.41,0,*4A
1534989850.58,36688,21.19,74538.8,4.63,-7.95,-11.37,0,*40
1534989851.82,36689,21.19,74540.5,4.63,-7.87,-11.29,0,*4D
1534989853.04,36690,21.19,74536.5,4.65,-7.87,-11.29,0,*43
1534989854.31,36691,21.19,74542.3,4.63,-7.95,-11.37,0,*48
1534989855.54,36692,21.19,74538.3,4.65,-7.95,-11.37,0,*4D
1534989856.79,36693,21.19,74536.3,4.63,-7.87,-11.29,0,*46
1534989857.98,36694,21.19,74540.8,4.65,-7.83,-11.23,0,*49
1534989859.25,36695,21.19,74540.3,4.63,-7.95,-11.37,0,*4C
1534989860.47,36696,21.19,74536.8,4.65,-7.87,-11.29,0,*45
1534989861.69,36697,21.19,74538.0,4.63,-7.87,-11.15,0,*4D
1534989862.88,36698,21.19,74542.0,4.65,-7.87,-11.23,0,*41
1534989864.12,36699,21.19,74536.0,4.63,-7.95,-11.23,0,*45
1534989865.37,36700,21.19,74536.0,4.63,-7.73,-11.11,0,*4D
1534989866.59,36701,21.19,74536.0,4.65,-7.73,-11.01,0,*4B
1534989867.79,36702,21.19,74536.8,4.65,-7.83,-11.01,0,*47
1534989869.03,36703,21.19,74538.5,4.63,-7.69,-11.01,0,*44
1534989870.22,36704,21.19,74536.0,4.65,-7.87,-11.15,0,*40
1534989871.46,36705,21.19,74538.8,4.65,-8.07,-11.37,0,*46
1534989872.68,36706,21.19,74536.5,4.65,-8.17,-11.37,0,*44
1534989873.95,36707,21.19,74538.0,4.63,-8.07,-11.37,0,*42
1534989875.2,36708,21.19,74540.0,4.63,-8.17,-11.37,0,*4C
1534989876.47,36709,21.19,74540.0,4.63,-8.11,-11.29,0,*44
1534989877.69,36710,21.19,74542.8,4.63,-8.29,-11.41,0,*49
1534989878.93,36711,21.19,74538.3,4.63,-8.29,-11.51,0,*49
1534989880.16,36712,21.19,74542.3,4.61,-8.41,-11.55,0,*42
1534989881.41,36713,21.19,74536.8,4.63,-8.41,-11.51,0,*45
1534989882.63,36714,21.19,74542.3,4.63,-8.37,-11.41,0,*42
1534989883.86,36715,21.19,74540.0,4.61,-8.41,-11.55,0,*45
1534989885.08,36716,21.19,74536.5,4.61,-8.45,-11.55,0,*42
1534989886.28,36717,21.19,74538.8,4.61,-8.55,-11.45,0,*43
1534989887.48,36718,21.19,74536.5,4.61,-8.41,-11.41,0,*4D
1534989888.67,36719,21.19,74536.5,4.57,-8.33,-11.41,0,*4C
1534989889.87,36720,21.19,74540.5,4.57,-8.55,-11.45,0,*42
1534989891.07,36721,21.19,74542.3,4.61,-8.55,-11.45,0,*46
1534989892.29,36722,21.19,74542.8,4.57,-8.55,-11.55,0,*41
1534989893.49,36723,21.19,74542.8,4.57,-8.45,-11.41,0,*44
1534989894.71,36724,21.19,74540.3,4.57,-8.59,-11.55,0,*4B
1534989895.96,36725,21.19,74540.3,4.55,-8.63,-11.59,0,*4D
1534989897.18,36726,21.19,74540.0,4.57,-8.55,-11.55,0,*45
1534989898.37,36727,21.19,74542.5,4.57,-8.41,-11.45,0,*40
1534989899.59,36728,21.19,74542.5,4.57,-8.41,-11.33,0,*4E
1534989900.79,36729,21.19,74542.5,4.57,-8.45,-11.41,0,*4E
1534989902.0,36730,21.19,74544.5,4.57,-8.41,-11.33,0,*47
1534989903.22,36731,21.19,74540.3,4.55,-8.45,-11.45,0,*41
1534989904.44,36732,21.19,74546.0,4.53,-8.45,-11.33,0,*45
1534989905.65,36733,21.19,74546.3,4.55,-8.33,-11.19,0,*4B
1534989906.87,36734,21.19,74544.3,4.55,-8.37,-11.23,0,*41
1534989908.07,36735,21.19,74546.5,4.53,-8.29,-11.23,0,*49
1534989909.28,36736,21.19,74548.0,4.55,-8.21,-11.11,0,*45
1534989910.53,36737,21.19,74546.8,4.55,-8.21,-11.07,0,*43
1534989911.78,36738,21.19,74544.5,4.55,-8.25,-11.07,0,*48
1534989913.0,36739,21.19,74546.0,4.55,-8.45,-11.23,0,*49
1534989914.22,36740,21.19,74542.8,4.55,-8.45,-11.23,0,*47
1534989915.41,36741,21.19,74544.0,4.57,-8.33,-11.19,0,*4C
1534989916.6,36742,21.19,74546.8,4.61,-8.33,-11.19,0,*4A
1534989917.82,36743,21.19,74544.8,4.57,-8.45,-11.29,0,*4C
1534989919.04,36744,21.19,74544.5,4.57,-8.29,-11.07,0,*4D
1534989920.26,36745,21.19,74540.3,4.55,-8.25,-10.97,0,*4A
1534989921.48,36746,21.19,74544.3,4.57,-8.29,-11.07,0,*4F
1534989922.7,36747,21.19,74546.3,4.57,-8.33,-11.07,0,*45
1534989923.89,36748,21.19,74544.3,4.57,-8.41,-11.19,0,*40
1534989925.11,36749,21.19,74544.5,4.61,-8.33,-11.29,0,*42
1534989926.3,36750,21.19,74542.8,4.57,-8.29,-11.15,0,*4B
1534989927.49,36751,21.19,74544.8,4.57,-8.29,-11.19,0,*46
1534989928.71,36752,21.19,74550.5,4.57,-8.21,-11.29,0,*4E
1534989929.9,36753,21.19,74540.3,4.57,-8.29,-11.19,0,*44
1534989931.12,36754,21.19,74542.5,4.57,-8.17,-11.07,0,*41
1534989932.34,36755,21.19,74542.5,4.57,-8.17,-11.07,0,*40
1534989933.56,36756,21.19,74540.8,4.55,-8.21,-11.19,0,*4B
1534989934.78,36757,21.19,74546.8,4.55,-8.25,-11.23,0,*47
1534989936.0,36758,21.19,74544.0,4.55,-8.37,-11.45,0,*4B
1534989937.24,36759,21.19,74546.8,4.55,-8.25,-11.33,0,*48
1534989938.46,36760,21.19,74542.0,4.55,-8.37,-11.45,0,*40
1534989939.71,36761,21.19,74542.5,4.55,-8.37,-11.51,0,*44
1534989940.96,36762,21.19,74542.5,4.55,-8.45,-11.59,0,*4A
1534989942.19,36763,21.19,74546.0,4.55,-8.33,-11.51,0,*42
1534989943.43,36764,21.19,74542.0,4.55,-8.33,-11.51,0,*45
1534989944.66,36765,21.19,74542.5,4.53,-8.37,-11.63,0,*47
1534989945.88,36766,21.19,74544.0,4.53,-8.37,-11.55,0,*41
1534989947.1,36767,21.19,74542.3,4.53,-8.21,-11.51,0,*43
1534989948.36,36768,21.19,74540.5,4.55,-8.03,-11.33,0,*4E
1534989949.58,36769,21.19,74546.0,4.53,-7.95,-11.23,0,*48
1534989950.83,36770,21.19,74540.8,4.55,-7.77,-11.23,0,*4A
1534989952.07,36771,21.19,74542.3,4.53,-7.99,-11.29,0,*47
1534989953.27,36772,21.19,74540.0,4.53,-7.87,-11.23,0,*41
1534989954.49,36773,21.19,74540.3,4.53,-7.73,-11.11,0,*4A
1534989955.72,36774,21.19,74538.3,4.53,-7.61,-11.11,0,*4E
1534989956.93,36775,21.19,74544.0,4.53,-7.69,-11.11,0,*47
1534989958.16,36776,21.19,74542.3,4.53,-7.61,-11.11,0,*4C
1534989959.38,36777,21.19,74542.5,4.53,-7.61,-11.23,0,*4C
1534989960.6,36778,21.19,74540.0,4.53,-7.61,-11.23,0,*43
1534989961.84,36779,21.19,74540.3,4.55,-7.69,-11.23,0,*4C
1534989963.09,36780,21.19,74544.0,4.53,-7.95,-11.51,0,*4A
1534989964.35,36781,21.19,74540.3,4.55,-7.77,-11.37,0,*41
1534989965.61,36782,21.19,74542.5,4.55,-7.77,-11.33,0,*46
1534989966.86,36783,21.19,74542.0,4.53,-7.69,-11.37,0,*4A
1534989968.06,36784,21.19,74540.8,4.53,-7.83,-11.41,0,*48
1534989969.28,36785,21.19,74544.0,4.53,-7.87,-11.51,0,*4C
1534989970.54,36786,21.19,74538.5,4.51,-7.95,-11.55,0,*4A
1534989971.81,36787,21.19,74544.8,4.51,-7.95,-11.55,0,*4B
1534989973.05,36788,21.19,74544.8,4.51,-7.87,-11.55,0,*47
1534989974.29,36789,21.19,74542.5,4.51,-7.83,-11.37,0,*46
1534989975.53,36790,21.19,74540.3,4.51,-7.61,-11.23,0,*47
1534989976.73,36791,21.19,74540.0,4.49,-7.49,-11.01,0,*45
1534989977.97,36792,21.19,74544.8,4.51,-7.73,-11.23,0,*46
1534989979.21,36793,21.19,74542.3,4.51,-7.69,-11.11,0,*4D
1534989980.46,36794,21.19,74540.0,4.51,-7.61,-11.15,0,*46
1534989981.7,36795,21.19,74542.3,4.51,-7.57,-11.11,0,*46
1534989982.94,36796,21.19,74540.8,4.51,-7.69,-11.11,0,*48
1534989984.18,36797,21.19,74538.3,4.51,-7.69,-11.11,0,*49
1534989985.4,36798,21.19,74542.3,4.51,-7.49,-10.93,0,*4F
1534989986.61,36799,21.19,74542.3,4.51,-7.49,-10.93,0,*4E
1534989987.86,36800,21.19,74540.8,4.55,-7.43,-10.89,0,*44
1534989989.08,36801,21.19,74540.0,4.53,-7.57,-11.01,0,*47
1534989990.31,36802,21.19,74536.5,4.53,-7.73,-11.01,0,*42
1534989991.54,36803,21.19,74536.0,4.53,-7.61,-11.01,0,*40
1534989992.78,36804,21.19,74536.3,4.55,-7.69,-10.97,0,*47
1534989994.03,36805,21.19,74538.3,4.55,-7.69,-10.97,0,*46
1534989995.26,36806,21.19,74540.3,4.53,-7.73,-11.11,0,*47
1534989996.5,36807,21.19,74540.8,4.55,-7.65,-10.89,0,*47
1534989997.74,36808,21.19,74536.5,4.55,-7.91,-11.11,0,*43
1534989998.98,36809,21.19,74540.5,4.53,-7.73,-10.97,0,*47
1534990000.25,36810,21.19,74536.0,4.55,-7.69,-10.79,0,*42
1534990001.52,36811,21.19,74536.5,4.55,-7.77,-10.79,0,*4C
1534990002.79,36812,21.19,74532.8,4.55,-7.91,-11.07,0,*4F
1534990004.03,36813,21.19,74532.0,4.55,-7.95,-11.15,0,*49
1534990005.28,36814,21.19,74538.3,4.55,-8.07,-11.23,0,*4F
1534990006.47,36815,21.19,74532.3,4.53,-8.21,-11.23,0,*4C
1534990007.69,36816,21.19,74536.8,4.55,-8.17,-11.23,0,*4C
1534990008.89,36817,21.19,74536.3,4.53,-8.25,-11.23,0,*4A
1534990010.08,36818,21.19,74536.3,4.53,-8.29,-11.23,0,*49
1534990011.28,36819,21.19,74532.8,4.53,-8.25,-11.23,0,*44
1534990012.5,36820,21.19,74532.8,4.53,-8.07,-11.11,0,*4F
1534990013.75,36821,21.19,74530.5,4.55,-8.07,-11.11,0,*48
1534990015.0,36822,21.19,74534.3,4.55,-8.07,-11.23,0,*4A
1534990016.22,36823,21.19,74532.5,4.53,-8.25,-11.37,0,*48
1534990017.46,36824,21.19,74532.0,4.55,-8.37,-11.37,0,*4A
1534990018.71,36825,21.19,74532.3,4.55,-8.25,-11.29,0,*47
1534990019.9,36826,21.19,74534.3,4.53,-8.29,-11.41,0,*40
1534990021.11,36827,21.19,74536.3,4.53,-8.37,-11.41,0,*4E
1534990022.33,36828,21.19,74534.3,4.53,-8.29,-11.29,0,*40
1534990023.55,36829,21.19,74532.8,4.53,-8.37,-11.37,0,*41
1534990024.74,36830,21.19,74536.0,4.53,-8.25,-11.19,0,*46
1534990025.96,36831,21.19,74534.5,4.53,-8.41,-11.33,0,*4D
1534990027.19,36832,21.19,74534.8,4.53,-8.51,-11.41,0,*4A
1534990028.46,36833,21.19,74538.5,4.55,-8.51,-11.37,0,*4C
1534990029.68,36834,21.19,74538.0,4.53,-8.41,-11.37,0,*4C
1534990030.9,36835,21.19,74536.8,4.53,-8.55,-11.51,0,*48
1534990032.13,36836,21.19,74536.0,4.53,-8.63,-11.63,0,*4F
1534990033.38,36837,21.19,74536.0,4.53,-8.51,-11.51,0,*4E
1534990034.6,36838,21.19,74536.8,4.53,-8.67,-11.51,0,*44
1534990035.84,36839,21.19,74538.0,4.51,-8.63,-11.51,0,*43
1534990037.11,36840,21.19,74540.8,4.51,-8.51,-11.51,0,*4C
1534990038.35,36841,21.19,74536.8,4.51,-8.37,-11.29,0,*42
1534990039.62,36842,21.19,74542.3,4.51,-8.51,-11.29,0,*41
1534990040.87,36843,21.19,74536.0,4.51,-8.37,-11.29,0,*40
1534990042.09,36844,21.19,74540.8,4.51,-8.25,-11.11,0,*4F
1534990043.3,36845,21.19,74538.8,4.51,-8.29,-11.23,0,*43
1534990044.55,36846,21.19,74540.3,4.51,-8.51,-11.41,0,*4B
1534990045.79,36847,21.19,74540.3,4.51,-8.51,-11.41,0,*4A
1534990047.01,36848,21.19,74542.0,4.51,-8.29,-11.23,0,*4E
1534990048.23,36849,21.19,74542.3,4.51,-8.37,-11.15,0,*45
1534990049.47,36850,21.19,74544.0,4.51,-8.41,-11.37,0,*4C
1534990050.71,36851,21.19,74540.8,4.51,-8.41,-11.29,0,*42
1534990051.96,36852,21.19,74542.5,4.51,-8.63,-11.51,0,*4E
1534990053.2,36853,21.19,74540.8,4.51,-8.55,-11.51,0,*4A
1534990054.42,36854,21.19,74540.0,4.51,-8.37,-11.23,0,*4C
1534990055.64,36855,21.13,74536.0,4.51,-8.37,-11.23,0,*4D
1534990056.9,36856,21.19,74536.5,4.51,-8.51,-11.37,0,*4B
1534990058.13,36857,21.19,74538.8,4.51,-8.55,-11.41,0,*4F
1534990059.34,36858,21.19,74536.0,4.51,-8.37,-11.23,0,*40
1534990060.56,36859,21.19,74538.0,4.51,-8.37,-11.23,0,*41
1534990061.78,36860,21.19,74542.3,4.51,-8.21,-10.97,0,*42
1534990063.0,36861,21.19,74540.5,4.51,-8.25,-11.11,0,*48
1534990064.22,36862,21.19,74536.8,4.53,-8.11,-10.93,0,*45
1534990065.42,36863,21.19,74536.3,4.53,-8.25,-11.11,0,*48
1534990066.66,36864,21.19,74536.8,4.51,-8.11,-11.11,0,*4A
1534990067.88,36865,21.19,74536.8,4.51,-8.21,-11.01,0,*49
1534990069.08,36866,21.19,74536.3,4.53,-8.25,-11.15,0,*49
1534990070.28,36867,21.19,74540.8,4.53,-8.25,-11.01,0,*4D
1534990071.5,36868,21.19,74538.0,4.55,-8.25,-11.11,0,*45
1534990072.75,36869,21.19,74534.3,4.53,-8.51,-11.29,0,*4A
1534990073.96,36870,21.19,74534.5,4.55,-8.33,-11.15,0,*4F
1534990075.2,36871,21.19,74534.5,4.55,-8.03,-10.89,0,*49
1534990076.42,36872,21.19,74534.3,4.55,-8.17,-10.93,0,*44
1534990077.65,36873,21.19,74532.3,4.55,-8.17,-10.89,0,*4E
1534990078.92,36874,21.19,74538.3,4.55,-7.91,-10.67,0,*48
1534990080.13,36875,21.19,74536.0,4.53,-7.99,-10.85,0,*4B
1534990081.36,36876,21.19,74532.5,4.53,-8.11,-10.97,0,*44
1534990082.63,36877,21.19,74534.8,4.55,-7.91,-10.63,0,*4F
1534990083.91,36878,21.19,74534.8,4.55,-7.91,-10.67,0,*44
1534990085.17,36879,21.19,74530.0,4.55,-8.03,-10.79,0,*4E
1534990086.42,36880,21.19,74534.8,4.55,-8.03,-10.89,0,*47
1534990087.64,36881,21.19,74532.0,4.57,-8.11,-10.93,0,*4C
1534990088.85,36882,21.19,74528.3,4.57,-8.33,-11.07,0,*43
1534990090.05,36883,21.19,74530.3,4.57,-8.17,-10.93,0,*48
1534990091.24,36884,21.19,74530.3,4.57,-8.21,-11.15,0,*45
1534990092.43,36885,21.19,74528.0,4.57,-8.29,-11.01,0,*49
1534990093.65,36886,21.19,74530.3,4.57,-8.41,-11.29,0,*4E
1534990094.88,36887,21.19,74526.8,4.57,-8.45,-11.29,0,*4B
1534990096.07,36888,21.19,74528.0,4.57,-8.45,-11.19,0,*47
1534990097.29,36889,21.19,74528.0,4.57,-8.45,-11.29,0,*45
1534990098.51,36890,21.19,74526.5,4.57,-8.41,-11.29,0,*49
1534990099.73,36891,21.19,74528.5,4.55,-8.45,-11.23,0,*44
1534990100.97,36892,21.19,74530.3,4.55,-8.59,-11.33,0,*4B
1534990102.24,36893,21.19,74528.8,4.55,-8.51,-11.33,0,*42
1534990103.46,36894,21.19,74530.0,4.55,-8.45,-11.23,0,*41
1534990104.7,36895,21.19,74530.0,4.55,-8.25,-11.07,0,*40
1534990105.93,36896,21.19,74528.8,4.57,-8.41,-11.29,0,*4F
1534990107.12,36897,21.19,74530.0,4.57,-8.29,-11.15,0,*4F